KJ7IVE-13 Weather Reports


Display with metric or nautical units.
time (UTC)temp
F
wind
direction
speed
MPH
gust
MPH
rain 1hr
in
rain 24hr
in
rain mn
in
humidity
%
barometer
mb
20260505094058 58 180 5.0 9.0 0.00 0.00 0.00 10 1009.7
20260505093554 58 173 6.0 8.0 0.00 0.00 0.00 10 1009.4
20260505093052 58 181 5.0 6.0 0.00 0.00 0.00 10 1009.5
20260505092549 58 162 8.0 10.0 0.00 0.00 0.00 10 1009.7
20260505092048 58 162 7.0 9.0 0.00 0.00 0.00 10 1009.7
20260505091544 58 202 6.0 8.0 0.00 0.00 0.00 10 1009.5
20260505091043 58 183 11.0 16.0 0.00 0.00 0.00 10 1009.5
20260505090540 58 176 11.0 17.0 0.00 0.00 0.00 10 1009.7
20260505090038 58 208 11.0 16.0 0.00 0.00 0.00 10 1009.5
20260505085535 58 165 9.0 11.0 0.00 0.00 0.00 10 1009.5
20260505085034 58 167 11.0 14.0 0.00 0.00 0.00 10 1009.4
20260505084531 58 174 10.0 13.0 0.00 0.00 0.00 10 1009.8
20260505084029 58 185 5.0 7.0 0.00 0.00 0.00 10 1009.8
20260505083526 58 151 4.0 6.0 0.00 0.00 0.00 10 1009.5
20260505083023 58 141 13.0 20.0 0.00 0.00 0.00 10 1009.4
20260505082518 58 144 17.0 24.0 0.00 0.00 0.00 10 1009.7
20260505082015 58 136 7.0 9.0 0.00 0.00 0.00 10 1009.7
20260505081512 58 151 8.0 11.0 0.00 0.00 0.00 10 1009.8
20260505081009 58 137 8.0 10.0 0.00 0.00 0.00 10 1009.8
20260505080505 58 130 6.0 8.0 0.00 0.00 0.00 10 1010.2
20260505080001 58 149 7.0 9.0 0.00 0.00 0.00 10 1009.9
20260505075457 58 149 10.0 10.0 0.00 0.00 0.00 10 1010.1
20260505074955 58 148 10.0 17.0 0.00 0.00 0.00 10 1009.9
20260505074452 58 130 12.0 15.0 0.00 0.00 0.00 10 1009.9
20260505073949 58 178 6.0 7.0 0.00 0.00 0.00 10 1010.1
20260505073447 58 145 10.0 11.0 0.00 0.00 0.00 10 1010.1
20260505072944 58 148 5.0 6.0 0.00 0.00 0.00 10 1010.2
20260505072440 58 140 8.0 10.0 0.00 0.00 0.00 10 1010.1
20260505071936 59 164 9.0 11.0 0.00 0.00 0.00 10 1010.5
20260505071432 59 139 4.0 6.0 0.00 0.00 0.00 10 1010.3
20260505070930 59 146 5.0 6.0 0.00 0.00 0.00 10 1010.5
20260505070427 59 142 8.0 10.0 0.00 0.00 0.00 10 1010.5
20260505065922 59 153 2.0 2.0 0.00 0.00 0.00 10 1010.3
20260505065419 59 187 5.0 6.0 0.00 0.00 0.00 10 1010.3
20260505064916 59 167 5.0 7.0 0.00 0.00 0.00 10 1010.6
20260505064413 59 146 4.0 6.0 0.00 0.00 0.00 10 1010.5
20260505063911 59 163 5.0 6.0 0.00 0.00 0.00 10 1010.2
20260505063407 59 154 8.0 9.0 0.00 0.00 0.00 10 1010.3
20260505062904 59 186 4.0 6.0 0.00 0.00 0.00 10 1010.1
20260505062401 59 191 5.0 7.0 0.00 0.00 0.00 10 1010.2
20260505061858 60 184 7.0 9.0 0.00 0.00 0.00 10 1010.1
20260505061356 60 220 5.0 7.0 0.00 0.00 0.00 10 1010.5
20260505060853 60 197 3.0 5.0 0.00 0.00 0.00 10 1010.5
20260505060350 60 162 3.0 6.0 0.00 0.00 0.00 10 1010.3
20260505055846 61 202 8.0 10.0 0.00 0.00 0.00 10 1009.8
20260505055342 60 183 6.0 7.0 0.00 0.00 0.00 10 1010.1
20260505054840 59 228 2.0 2.0 0.00 0.00 0.00 10 1009.8
20260505054337 61 211 2.0 3.0 0.00 0.00 0.00 10 1009.7
20260505053835 61 201 3.0 3.0 0.00 0.00 0.00 10 1009.4
20260505053331 61 202 1.0 2.0 0.00 0.00 0.00 10 1009.5
20260505052828 61 215 5.0 7.0 0.00 0.00 0.00 10 1009.5
20260505052325 61 196 4.0 7.0 0.00 0.00 0.00 10 1009.4
20260505051822 61 198 7.0 9.0 0.00 0.00 0.00 10 1009.2
20260505051320 61 181 3.0 7.0 0.00 0.00 0.00 10 1009.4
20260505050818 61 188 3.0 3.0 0.00 0.00 0.00 10 1009.2
20260505050316 61 163 6.0 10.0 0.00 0.00 0.00 10 1008.9
20260505041746 64 203 6.0 7.0 0.00 0.00 0.00 10 1008.2
20260505041243 64 168 5.0 7.0 0.00 0.00 0.00 10 1008.3
20260505040740 64 143 6.0 8.0 0.00 0.00 0.00 10 1008.1
20260505040238 64 176 3.0 3.0 0.00 0.00 0.00 10 1008.1
20260505035734 64 197 5.0 6.0 0.00 0.00 0.00 10 1008.0
20260505035230 64 181 5.0 7.0 0.00 0.00 0.00 10 1008.0
20260505034727 64 146 4.0 6.0 0.00 0.00 0.00 10 1008.2
20260505034224 64 185 4.0 5.0 0.00 0.00 0.00 10 1008.4
20260505033721 64 194 1.0 1.0 0.00 0.00 0.00 10 1008.0
20260505033219 65 196 2.0 2.0 0.00 0.00 0.00 10 1007.7
20260505032717 65 194 1.0 2.0 0.00 0.00 0.00 10 1007.8
20260505032212 65 170 2.0 2.0 0.00 0.00 0.00 10 1007.4
20260505031710 65 150 2.0 2.0 0.00 0.00 0.00 10 1007.6
20260505031206 65 186 1.0 1.0 0.00 0.00 0.00 10 1007.5
20260505030703 66 182 2.0 2.0 0.00 0.00 0.00 10 1007.4
20260505030159 66 186 2.0 2.0 0.00 0.00 0.00 10 1007.2
20260505025655 66 185 3.0 3.0 0.00 0.00 0.00 10 1007.0
20260505025153 67 187 3.0 3.0 0.00 0.00 0.00 10 1007.3
20260505024651 67 187 3.0 3.0 0.00 0.00 0.00 10 1007.0
20260505024147 67 194 5.0 7.0 0.00 0.00 0.00 10 1007.2
20260505023645 67 173 5.0 6.0 0.00 0.00 0.00 10 1007.2
20260505023143 67 201 3.0 7.0 0.00 0.00 0.00 10 1007.0
20260505022640 68 171 5.0 6.0 0.00 0.00 0.00 10 1007.3
20260505022137 68 184 2.0 2.0 0.00 0.00 0.00 10 1007.0
20260505021633 68 170 5.0 7.0 0.00 0.00 0.00 10 1006.9
20260505021125 69 181 11.0 13.0 0.00 0.00 0.00 10 1007.2
20260505020620 69 184 5.0 6.0 0.00 0.00 0.00 10 1006.9
20260505020116 70 199 3.0 3.0 0.00 0.00 0.00 10 1006.8
20260505015613 70 163 5.0 7.0 0.00 0.00 0.00 10 1006.7
20260505015110 70 195 7.0 9.0 0.00 0.00 0.00 10 1007.2
20260505014607 71 166 4.0 5.0 0.00 0.00 0.00 10 1006.8
20260505014104 71 192 6.0 7.0 0.00 0.00 0.00 10 1006.7
20260505013601 71 188 14.0 20.0 0.00 0.00 0.00 10 1006.7
20260505013058 71 170 10.0 11.0 0.00 0.00 0.00 10 1006.7
20260505012556 71 203 5.0 7.0 0.00 0.00 0.00 10 1006.7
20260505012053 71 160 4.0 5.0 0.00 0.00 0.00 10 1006.7
20260505011549 71 202 4.0 6.0 0.00 0.00 0.00 10 1006.7
20260505011046 72 192 8.0 9.0 0.00 0.00 0.00 10 1006.8
20260505010541 72 226 8.0 9.0 0.00 0.00 0.00 10 1006.9
20260505010038 72 216 6.0 8.0 0.00 0.00 0.00 10 1006.8
20260505005534 72 221 7.0 9.0 0.00 0.00 0.00 10 1006.9
20260505005032 72 175 7.0 10.0 0.00 0.00 0.00 10 1007.0
20260505004529 72 189 8.0 11.0 0.00 0.00 0.00 10 1007.2
20260505004020 72 224 12.0 14.0 0.00 0.00 0.00 10 1007.2
20260505003518 72 204 11.0 13.0 0.00 0.00 0.00 10 1007.2
20260505003015 72 225 12.0 14.0 0.00 0.00 0.00 10 1007.3
20260505002510 73 205 6.0 7.0 0.00 0.00 0.00 10 1007.4
20260505002009 73 218 9.0 13.0 0.00 0.00 0.00 10 1007.3
20260505001506 73 148 11.0 14.0 0.00 0.00 0.00 10 1007.5
20260505001003 73 204 9.0 10.0 0.00 0.00 0.00 10 1007.2
20260505000500 73 215 7.0 8.0 0.00 0.00 0.00 10 1007.3
20260504235957 73 196 7.0 7.0 0.00 0.00 0.00 10 1007.5
20260504235454 73 239 7.0 9.0 0.00 0.00 0.00 10 1007.3
20260504234951 73 250 9.0 10.0 0.00 0.00 0.00 10 1007.5
20260504234448 73 243 8.0 9.0 0.00 0.00 0.00 10 1007.5
20260504233944 73 241 8.0 9.0 0.00 0.00 0.00 10 1007.5
20260504233440 73 228 11.0 14.0 0.00 0.00 0.00 10 1007.5
20260504232937 73 247 13.0 14.0 0.00 0.00 0.00 10 1007.5
20260504232434 73 247 10.0 11.0 0.00 0.00 0.00 10 1007.6
20260504231931 73 230 12.0 14.0 0.00 0.00 0.00 10 1007.4
20260504231428 73 241 13.0 15.0 0.00 0.00 0.00 10 1007.6
20260504230924 72 238 14.0 15.0 0.00 0.00 0.00 10 1007.5
20260504230421 73 251 9.0 10.0 0.00 0.00 0.00 10 1007.6
20260504225920 72 238 11.0 13.0 0.00 0.00 0.00 10 1007.6
20260504225416 72 239 11.0 11.0 0.00 0.00 0.00 10 1007.5
20260504224914 72 243 15.0 17.0 0.00 0.00 0.00 10 1007.6
20260504224410 72 248 14.0 18.0 0.00 0.00 0.00 10 1007.5
20260504223908 73 229 17.0 20.0 0.00 0.00 0.00 10 1007.5
20260504223403 73 225 14.0 16.0 0.00 0.00 0.00 10 1007.7
20260504222859 72 247 16.0 18.0 0.00 0.00 0.00 10 1007.4
20260504222356 71 248 10.0 13.0 0.00 0.00 0.00 10 1007.5
20260504221855 75 229 10.0 11.0 0.00 0.00 0.00 10 1007.6
20260504221350 74 226 5.0 6.0 0.00 0.00 0.00 10 1007.4
20260504220847 74 269 11.0 14.0 0.00 0.00 0.00 10 1007.8
20260504220344 74 212 7.0 13.0 0.00 0.00 0.00 10 1007.5
20260504215841 75 267 9.0 11.0 0.00 0.00 0.00 10 1007.5
20260504215337 74 206 1.0 2.0 0.00 0.00 0.00 10 1007.7
20260504214834 74 224 5.0 7.0 0.00 0.00 0.00 10 1008.1
20260504214331 74 238 5.0 6.0 0.00 0.00 0.00 10 1007.8
20260504213827 75 253 4.0 6.0 0.00 0.00 0.00 10 1008.0
20260504213323 74 252 2.0 2.0 0.00 0.00 0.00 10 1008.1
20260504212821 75 175 6.0 7.0 0.00 0.00 0.00 10 1008.2
20260504212317 74 230 6.0 7.0 0.00 0.00 0.00 10 1008.3
20260504211815 75 264 7.0 9.0 0.00 0.00 0.00 10 1008.5
20260504211310 74 271 8.0 9.0 0.00 0.00 0.00 10 1008.3
20260504210808 74 234 7.0 8.0 0.00 0.00 0.00 10 1008.4
20260504210305 74 274 7.0 9.0 0.00 0.00 0.00 10 1008.5
20260504205802 73 232 7.0 9.0 0.00 0.00 0.00 10 1008.4
20260504205300 74 275 5.0 6.0 0.00 0.00 0.00 10 1008.6
20260504204758 74 253 4.0 6.0 0.00 0.00 0.00 10 1008.8
20260504204256 74 260 4.0 5.0 0.00 0.00 0.00 10 1008.8
20260504203755 74 336 8.0 9.0 0.00 0.00 0.00 10 1008.6
20260504203253 74 252 5.0 6.0 0.00 0.00 0.00 10 1008.9
20260504202752 73 287 5.0 7.0 0.00 0.00 0.00 10 1008.8
20260504202250 73 268 5.0 9.0 0.00 0.00 0.00 10 1008.6
20260504201747 74 216 1.0 2.0 0.00 0.00 0.00 10 1008.9
20260504201244 73 241 3.0 3.0 0.00 0.00 0.00 10 1009.0
20260504200742 73 331 4.0 5.0 0.00 0.00 0.00 10 1009.1
20260504200237 73 266 8.0 9.0 0.00 0.00 0.00 10 1009.0
20260504195734 72 224 5.0 7.0 0.00 0.00 0.00 10 1009.1
20260504195230 73 245 8.0 9.0 0.00 0.00 0.00 10 1009.1
20260504194728 72 280 6.0 7.0 0.00 0.00 0.00 10 1009.3
20260504194223 72 222 5.0 7.0 0.00 0.00 0.00 10 1009.2
20260504193720 73 254 7.0 8.0 0.00 0.00 0.00 10 1009.3
20260504193218 73 246 5.0 6.0 0.00 0.00 0.00 10 1009.5
20260504192716 71 242 8.0 9.0 0.00 0.00 0.00 10 1009.5
20260504192213 72 246 7.0 8.0 0.00 0.00 0.00 10 1009.7
20260504191712 73 238 9.0 10.0 0.00 0.00 0.00 10 1009.5
20260504191208 71 241 4.0 5.0 0.00 0.00 0.00 10 1009.8
20260504190703 72 310 5.0 9.0 0.00 0.00 0.00 10 1009.7
20260504190200 72 273 7.0 9.0 0.00 0.00 0.00 10 1009.9
20260504185657 72 254 7.0 9.0 0.00 0.00 0.00 10 1009.8
20260504185153 72 289 5.0 7.0 0.00 0.00 0.00 10 1009.9
20260504184649 72 248 6.0 7.0 0.00 0.00 0.00 10 1009.9
20260504184144 72 309 2.0 3.0 0.00 0.00 0.00 10 1009.9
20260504183642 72 257 6.0 8.0 0.00 0.00 0.00 10 1009.8
20260504183139 73 260 6.0 7.0 0.00 0.00 0.00 10 1010.0
20260504182637 72 278 5.0 7.0 0.00 0.00 0.00 10 1010.1
20260504182135 72 254 8.0 9.0 0.00 0.00 0.00 10 1010.2
20260504181632 73 302 6.0 10.0 0.00 0.00 0.00 10 1009.9
20260504181129 71 220 3.0 3.0 0.00 0.00 0.00 10 1010.3
20260504180628 73 281 4.0 5.0 0.00 0.00 0.00 10 1010.3
20260504180126 71 212 2.0 2.0 0.00 0.00 0.00 10 1010.5
20260504175623 71 315 4.0 5.0 0.00 0.00 0.00 10 1010.5
20260504175120 72 170 5.0 7.0 0.00 0.00 0.00 10 1010.5
20260504174618 72 126 3.0 3.0 0.00 0.00 0.00 10 1010.7
20260504174114 72 95 3.0 5.0 0.00 0.00 0.00 10 1010.5
20260504173611 71 184 3.0 5.0 0.00 0.00 0.00 10 1010.5
20260504173109 71 226 5.0 7.0 0.00 0.00 0.00 10 1010.8
20260504172605 71 138 5.0 6.0 0.00 0.00 0.00 10 1010.6
20260504172102 71 189 0.0 1.0 0.00 0.00 0.00 10 1010.8
20260504171558 71 159 3.0 5.0 0.00 0.00 0.00 10 1010.6
20260504171055 70 163 2.0 3.0 0.00 0.00 0.00 10 1010.8
20260504170551 70 209 6.0 8.0 0.00 0.00 0.00 10 1010.8
20260504150935 65 137 7.0 9.0 0.00 0.00 0.00 10 1010.9
20260504150432 66 128 4.0 7.0 0.00 0.00 0.00 10 1011.0
20260504140852 63 169 5.0 9.0 0.00 0.00 0.00 10 1011.3
20260504140349 62 132 5.0 6.0 0.00 0.00 0.00 10 1011.1
20260504130812 53 134 2.0 2.0 0.00 0.00 0.00 10 1011.3
20260504130308 53 167 1.0 1.0 0.00 0.00 0.00 10 1011.3
20260504120232 53 105 2.0 2.0 0.00 0.00 0.00 10 1011.3
20260504110659 58 157 3.0 3.0 0.00 0.00 0.00 10 1011.3
20260504110155 58 126 3.0 5.0 0.00 0.00 0.00 10 1011.5
20260504100615 57 174 4.0 5.0 0.00 0.00 0.00 10 1011.0
20260504100114 56 153 4.0 5.0 0.00 0.00 0.00 10 1011.0